DW2891 Weather Reports


Display with metric or nautical units.
time (UTC)temp
F
wind
direction
speed
MPH
gust
MPH
rain 1hr
in
rain 24hr
in
rain mn
in
humidity
%
barometer
mb
20260506185103 58 272 0.0 0.0 0.00 0.00 0.00 83 1018.4
20260506184604 57 272 0.0 0.0 0.00 0.00 0.00 85 1018.4
20260506183604 57 265 0.0 0.0 0.00 0.00 0.00 84 1018.3
20260506183105 57 265 0.0 0.0 0.00 0.00 0.00 84 1018.2
20260506182604 57 265 0.0 0.0 0.00 0.00 0.00 85 1018.3
20260506182105 56 265 0.0 2.0 0.00 0.00 0.00 86 1018.1
20260506181105 56 265 0.0 0.0 0.00 0.00 0.00 85 1018.1
20260506180604 56 266 1.0 6.0 0.00 0.00 0.00 86 1018.1
20260506175105 56 308 0.0 0.0 0.00 0.00 0.00 87 1018.0
20260506173604 56 289 0.0 0.0 0.00 0.00 0.00 87 1017.9
20260506173105 56 289 0.0 0.0 0.00 0.00 0.00 87 1018.0
20260506172604 56 289 0.0 0.0 0.00 0.00 0.00 86 1017.9
20260506172104 56 310 0.0 0.0 0.00 0.00 0.00 87 1017.9
20260506171604 56 310 0.0 0.0 0.00 0.00 0.00 87 1017.9
20260506171106 56 310 0.0 0.0 0.00 0.00 0.00 86 1017.9
20260506170604 57 310 0.0 0.0 0.00 0.00 0.00 86 1017.9
20260506170104 57 310 0.0 1.0 0.00 0.00 0.00 86 1017.9
20260506165604 57 310 0.0 0.0 0.00 0.00 0.00 86 1017.9
20260506165105 56 310 0.0 0.0 0.00 0.00 0.00 86 1017.7
20260506164604 56 310 0.0 0.0 0.00 0.00 0.00 87 1017.9
20260506164104 56 310 0.0 0.0 0.00 0.00 0.00 87 1017.8
20260506162604 55 310 0.0 0.0 0.00 0.00 0.00 89 1017.8
20260506162104 55 310 0.0 0.0 0.00 0.00 0.00 88 1017.7
20260506161604 56 310 0.0 0.0 0.00 0.00 0.00 86 1017.7
20260506161104 57 310 0.0 0.0 0.00 0.00 0.00 87 1017.5
20260506160604 57 310 0.0 0.0 0.00 0.00 0.00 88 1017.5
20260506155604 57 310 0.0 0.0 0.00 0.00 0.00 90 1017.3
20260506155104 57 310 0.0 0.0 0.00 0.00 0.00 90 1017.3
20260506154604 57 310 0.0 0.0 0.00 0.00 0.00 91 1017.3
20260506154104 57 310 0.0 0.0 0.00 0.00 0.00 92 1017.2
20260506153604 56 310 0.0 0.0 0.00 0.00 0.00 92 1017.2
20260506153104 56 310 0.0 0.0 0.00 0.00 0.00 92 1017.1
20260506152104 55 310 0.0 0.0 0.00 0.00 0.00 94 1017.2
20260506151604 55 319 1.0 6.0 0.00 0.00 0.00 94 1017.1
20260506151104 55 348 0.0 0.0 0.00 0.00 0.00 95 1017.1
20260506150604 55 348 0.0 0.0 0.00 0.00 0.00 95 1017.1
20260506150104 55 342 0.0 0.0 0.00 0.00 0.00 95 1017.2
20260506145604 55 343 0.0 0.0 0.00 0.00 0.00 95 1017.1
20260506144604 54 342 0.0 0.0 0.00 0.00 0.00 96 1017.2
20260506142603 53 67 0.0 0.0 0.00 0.00 0.00 96 1017.0
20260506141603 52 67 0.0 0.0 0.00 0.00 0.00 96 1017.1
20260506141104 52 67 0.0 0.0 0.00 0.00 0.00 95 1017.1
20260506140604 51 67 0.0 0.0 0.00 0.00 0.00 95 1017.1
20260506140104 51 67 0.0 0.0 0.00 0.00 0.00 95 1017.0
20260506135604 51 67 0.0 0.0 0.00 0.00 0.00 95 1016.8
20260506135104 51 67 0.0 0.0 0.00 0.00 0.00 95 1016.7
20260506134604 51 67 0.0 0.0 0.00 0.00 0.00 95 1016.7
20260506134104 51 67 0.0 0.0 0.00 0.00 0.00 95 1016.7
20260506133604 50 67 0.0 0.0 0.00 0.00 0.00 95 1016.8
20260506133104 50 67 0.0 0.0 0.00 0.00 0.00 95 1016.6
20260506132604 50 67 0.0 0.0 0.00 0.00 0.00 95 1016.6
20260506131604 50 67 0.0 0.0 0.00 0.00 0.00 95 1016.6
20260506131104 50 67 0.0 0.0 0.00 0.00 0.00 95 1016.5
20260506130604 50 67 0.0 0.0 0.00 0.00 0.00 95 1016.4
20260506130104 50 67 0.0 0.0 0.00 0.00 0.00 95 1016.4
20260506125603 50 67 0.0 0.0 0.00 0.00 0.00 95 1016.4
20260506125104 50 67 0.0 0.0 0.00 0.00 0.00 95 1016.3
20260506124604 50 67 0.0 0.0 0.00 0.00 0.00 95 1016.3
20260506124105 50 67 0.0 0.0 0.00 0.00 0.00 95 1016.3
20260506123604 50 67 0.0 0.0 0.00 0.00 0.00 95 1016.2
20260506123104 50 67 0.0 0.0 0.00 0.00 0.00 95 1016.2
20260506122604 50 67 0.0 0.0 0.00 0.00 0.00 95 1016.3
20260506122104 50 67 0.0 0.0 0.00 0.00 0.00 94 1016.2
20260506121604 50 67 0.0 0.0 0.00 0.00 0.00 94 1016.3
20260506120104 50 67 0.0 0.0 0.00 0.00 0.00 94 1016.1
20260506115603 51 67 0.0 0.0 0.00 0.00 0.00 94 1015.9
20260506115104 51 67 0.0 0.0 0.00 0.00 0.00 94 1016.0
20260506114604 51 67 0.0 0.0 0.00 0.00 0.00 94 1015.9
20260506113604 51 67 0.0 0.0 0.00 0.00 0.00 94 1015.8
20260506113104 51 67 0.0 0.0 0.00 0.00 0.00 94 1015.8
20260506112604 51 67 0.0 0.0 0.00 0.00 0.00 94 1015.8
20260506112103 51 67 0.0 0.0 0.00 0.00 0.00 94 1016.0
20260506111603 51 67 0.0 0.0 0.00 0.00 0.00 94 1015.9
20260506111104 51 67 0.0 0.0 0.00 0.00 0.00 94 1015.9
20260506110603 50 67 0.0 0.0 0.00 0.00 0.00 94 1015.8
20260506110103 50 67 0.0 0.0 0.00 0.00 0.00 94 1015.7
20260506105603 50 67 0.0 0.0 0.00 0.00 0.00 94 1015.7
20260506105104 51 67 0.0 0.0 0.00 0.00 0.00 93 1015.7
20260506104604 51 67 0.0 0.0 0.00 0.00 0.00 94 1015.6
20260506104104 51 67 0.0 0.0 0.00 0.00 0.00 94 1015.5
20260506103604 51 67 0.0 0.0 0.00 0.00 0.00 93 1015.4
20260506103104 51 67 0.0 0.0 0.00 0.00 0.00 93 1015.3
20260506102604 51 67 0.0 0.0 0.00 0.00 0.00 93 1015.4
20260506102104 51 67 0.0 0.0 0.00 0.00 0.00 94 1015.3
20260506101603 51 67 0.0 0.0 0.00 0.00 0.00 93 1015.4
20260506101103 51 67 0.0 0.0 0.00 0.00 0.00 93 1015.2
20260506100603 51 67 0.0 0.0 0.00 0.00 0.00 93 1015.1
20260506100103 51 67 0.0 0.0 0.00 0.00 0.00 93 1015.1
20260506095104 51 67 0.0 0.0 0.00 0.00 0.00 93 1015.1
20260506094605 51 67 0.0 0.0 0.00 0.00 0.00 93 1015.1
20260506094104 51 67 0.0 0.0 0.00 0.00 0.00 93 1015.0
20260506093604 51 67 0.0 0.0 0.00 0.00 0.00 93 1015.0
20260506093104 51 67 0.0 0.0 0.00 0.00 0.00 93 1015.0
20260506092605 52 67 0.0 0.0 0.00 0.00 0.00 93 1014.9
20260506092103 52 67 0.0 0.0 0.00 0.00 0.00 93 1014.9
20260506091604 52 67 0.0 0.0 0.00 0.00 0.00 93 1014.8
20260506091104 52 67 0.0 0.0 0.00 0.00 0.00 92 1014.7
20260506090604 52 67 0.0 0.0 0.00 0.00 0.00 93 1014.7
20260506090103 52 67 0.0 0.0 0.00 0.00 0.00 92 1014.5
20260506085604 52 67 0.0 0.0 0.00 0.00 0.00 92 1014.5
20260506085104 52 67 0.0 0.0 0.00 0.00 0.00 92 1014.5
20260506084604 52 67 0.0 0.0 0.00 0.00 0.00 92 1014.6
20260506084104 52 67 0.0 0.0 0.00 0.00 0.00 92 1014.5
20260506082604 52 67 0.0 0.0 0.00 0.00 0.00 92 1014.5
20260506082103 53 67 0.0 0.0 0.00 0.00 0.00 92 1014.5
20260506081604 53 67 0.0 0.0 0.00 0.00 0.00 92 1014.4
20260506081103 53 67 0.0 0.0 0.00 0.00 0.00 92 1014.3
20260506080603 53 67 0.0 0.0 0.00 0.00 0.00 92 1014.4
20260506080103 53 67 0.0 0.0 0.00 0.00 0.00 92 1014.4
20260506073104 53 67 0.0 0.0 0.00 0.00 0.00 91 1014.1
20260506072604 53 67 0.0 0.0 0.00 0.00 0.00 91 1014.0
20260506072104 54 67 0.0 0.0 0.00 0.00 0.00 91 1014.0
20260506071604 54 67 0.0 0.0 0.00 0.00 0.00 91 1013.9
20260506070604 54 67 0.0 0.0 0.00 0.00 0.00 90 1013.7
20260506070104 54 67 0.0 0.0 0.00 0.00 0.00 90 1013.7
20260506061603 55 67 0.0 0.0 0.00 0.00 0.00 89 1013.4
20260506061104 55 67 0.0 0.0 0.00 0.00 0.00 89 1013.5
20260506060603 55 67 0.0 0.0 0.00 0.00 0.00 89 1013.4
20260506051104 57 67 0.0 0.0 0.00 0.00 0.00 86 1013.2
20260506050603 57 67 0.0 0.0 0.00 0.00 0.00 86 1013.2
20260506050104 57 67 0.0 0.0 0.00 0.00 0.00 86 1013.2
20260506045103 57 67 0.0 0.0 0.00 0.00 0.00 85 1013.2
20260506044103 58 67 0.0 0.0 0.00 0.00 0.00 85 1013.1
20260506043605 58 67 0.0 0.0 0.00 0.00 0.00 84 1013.1
20260506043103 58 67 0.0 0.0 0.00 0.00 0.00 84 1013.0
20260506042604 58 67 0.0 0.0 0.00 0.00 0.00 83 1012.9
20260506042104 59 67 0.0 0.0 0.00 0.00 0.00 83 1012.9
20260506041604 59 67 0.0 0.0 0.00 0.00 0.00 83 1012.8
20260506035604 60 67 0.0 0.0 0.00 0.00 0.00 81 1012.6
20260506035105 60 67 0.0 0.0 0.00 0.00 0.00 80 1012.5
20260506034605 60 67 0.0 0.0 0.00 0.00 0.00 80 1012.5
20260506034105 61 67 0.0 0.0 0.00 0.00 0.00 79 1012.5
20260506033605 61 67 0.0 0.0 0.00 0.00 0.00 79 1012.4
20260506033105 61 67 0.0 0.0 0.00 0.00 0.00 79 1012.4
20260506032605 62 67 0.0 0.0 0.00 0.00 0.00 79 1012.3
20260506032106 62 67 0.0 0.0 0.00 0.00 0.00 78 1012.3
20260506031605 62 67 0.0 0.0 0.00 0.00 0.00 78 1012.4
20260506031105 63 67 0.0 0.0 0.00 0.00 0.00 77 1012.3
20260506030605 63 67 0.0 0.0 0.00 0.00 0.00 77 1012.2
20260506030105 63 67 0.0 0.0 0.00 0.00 0.00 77 1012.1
20260506025605 63 67 0.0 0.0 0.00 0.00 0.00 77 1012.1
20260506025105 64 67 0.0 0.0 0.00 0.00 0.00 76 1012.0
20260506024605 64 67 0.0 0.0 0.00 0.00 0.00 76 1012.0
20260506024105 64 67 0.0 0.0 0.00 0.00 0.00 75 1012.0
20260506023605 64 67 0.0 0.0 0.00 0.00 0.00 75 1012.0
20260506023105 65 67 0.0 0.0 0.00 0.00 0.00 74 1012.0
20260506022605 65 67 0.0 0.0 0.00 0.00 0.00 73 1011.9
20260506022105 65 67 0.0 0.0 0.00 0.00 0.00 72 1012.0
20260506021105 66 67 0.0 0.0 0.00 0.00 0.00 71 1012.0
20260506020105 66 67 0.0 0.0 0.00 0.00 0.00 69 1011.9
20260506015605 67 67 0.0 0.0 0.00 0.00 0.00 70 1012.0
20260506015105 67 67 0.0 0.0 0.00 0.00 0.00 69 1012.0
20260506014604 67 67 0.0 0.0 0.00 0.00 0.00 69 1012.0
20260506014105 67 67 0.0 0.0 0.00 0.00 0.00 69 1011.9
20260506013105 67 67 0.0 0.0 0.00 0.00 0.00 69 1012.0
20260506012605 67 67 0.0 0.0 0.00 0.00 0.00 68 1012.1
20260506012105 67 67 0.0 0.0 0.00 0.00 0.00 69 1012.0
20260506011605 68 67 0.0 0.0 0.00 0.00 0.00 70 1012.1
20260506010605 68 67 0.0 0.0 0.00 0.00 0.00 68 1012.1
20260506005605 69 67 0.0 0.0 0.00 0.00 0.00 66 1012.2
20260506005105 69 67 0.0 0.0 0.00 0.00 0.00 67 1012.2
20260506004605 69 67 0.0 0.0 0.00 0.00 0.00 65 1012.2
20260506004105 69 67 0.0 0.0 0.00 0.00 0.00 65 1012.1
20260506003604 69 67 0.0 0.0 0.00 0.00 0.00 65 1012.2
20260506003105 70 67 0.0 0.0 0.00 0.00 0.00 64 1012.2
20260506002605 70 67 0.0 0.0 0.00 0.00 0.00 63 1012.2
20260506002105 70 67 0.0 0.0 0.00 0.00 0.00 64 1012.3
20260506001604 70 67 0.0 0.0 0.00 0.00 0.00 63 1012.3
20260506001105 70 67 0.0 0.0 0.00 0.00 0.00 63 1012.3
20260506000605 70 70 0.0 0.0 0.00 0.00 0.00 63 1012.3
20260506000105 70 70 0.0 0.0 0.00 0.00 0.00 64 1012.4
20260505235105 70 109 0.0 0.0 0.00 0.00 0.00 65 1012.5
20260505234604 70 109 0.0 0.0 0.00 0.00 0.00 65 1012.4
20260505234105 70 109 0.0 1.0 0.00 0.00 0.00 64 1012.4
20260505233605 70 109 0.0 0.0 0.00 0.00 0.00 65 1012.4
20260505233106 70 109 0.0 0.0 0.00 0.00 0.00 63 1012.5
20260505232605 70 109 0.0 0.0 0.00 0.00 0.00 65 1012.6
20260505232105 70 109 0.0 0.0 0.00 0.00 0.00 63 1012.5
20260505231605 70 109 0.0 0.0 0.00 0.00 0.00 62 1012.6
20260505231105 70 109 0.0 0.0 0.00 0.00 0.00 64 1012.6
20260505230605 71 109 0.0 0.0 0.00 0.00 0.00 62 1012.7
20260505230105 71 109 0.0 0.0 0.00 0.00 0.00 62 1012.7
20260505225605 71 74 0.0 0.0 0.00 0.00 0.00 62 1012.9
20260505225106 71 78 0.0 0.0 0.00 0.00 0.00 62 1012.8
20260505224605 71 31 0.0 0.0 0.00 0.00 0.00 62 1012.9
20260505224105 71 23 0.0 0.0 0.00 0.00 0.00 65 1012.9
20260505223605 70 55 0.0 1.0 0.00 0.00 0.00 65 1012.9
20260505223104 69 59 0.0 0.0 0.00 0.00 0.00 64 1012.9
20260505222604 69 59 0.0 1.0 0.00 0.00 0.00 63 1013.0
20260505222105 70 61 0.0 2.0 0.00 0.00 0.00 65 1013.0
20260505221605 70 61 0.0 1.0 0.00 0.00 0.00 63 1013.0
20260505221105 70 37 0.0 0.0 0.00 0.00 0.00 65 1013.1
20260505220605 70 80 0.0 2.0 0.00 0.00 0.00 62 1013.2
20260505220105 70 80 0.0 0.0 0.00 0.00 0.00 68 1013.2
20260505215605 69 317 0.0 1.0 0.00 0.00 0.00 64 1013.3
20260505215105 69 58 0.0 0.0 0.00 0.00 0.00 65 1013.4
20260505214605 69 56 1.0 5.0 0.00 0.00 0.00 65 1013.4
20260505214105 69 57 0.0 0.0 0.00 0.00 0.00 68 1013.4
20260505213606 69 56 0.0 3.0 0.00 0.00 0.00 66 1013.4
20260505213105 69 346 0.0 6.0 0.00 0.00 0.00 66 1013.4
20260505212605 69 51 0.0 0.0 0.00 0.00 0.00 64 1013.4
20260505211105 68 30 0.0 0.0 0.00 0.00 0.00 65 1013.6
20260505210605 68 30 0.0 0.0 0.00 0.00 0.00 66 1013.6
20260505210105 68 30 0.0 0.0 0.00 0.00 0.00 64 1013.7
20260505205605 68 100 0.0 2.0 0.00 0.00 0.00 65 1013.8
20260505205105 68 347 0.0 1.0 0.00 0.00 0.00 66 1013.8
20260505204605 68 35 0.0 0.0 0.00 0.00 0.00 65 1013.7
20260505204105 67 75 0.0 0.0 0.00 0.00 0.00 64 1013.7
20260505203605 68 9 0.0 3.0 0.00 0.00 0.00 67 1013.7
20260505202605 68 11 0.0 0.0 0.00 0.00 0.00 67 1013.7
20260505202105 68 76 0.0 2.0 0.00 0.00 0.00 66 1013.7
20260505201604 68 88 0.0 2.0 0.00 0.00 0.00 67 1013.7
20260505201105 67 91 0.0 3.0 0.00 0.00 0.00 67 1013.7
20260505200605 67 57 0.0 1.0 0.00 0.00 0.00 66 1013.6
20260505200105 67 80 0.0 0.0 0.00 0.00 0.00 68 1013.7
20260505194604 67 64 1.0 6.0 0.00 0.00 0.00 69 1013.8
20260505194105 67 46 0.0 0.0 0.00 0.00 0.00 65 1013.8
20260505193605 68 45 0.0 0.0 0.00 0.00 0.00 67 1013.8
20260505192605 68 62 0.0 2.0 0.00 0.00 0.00 66 1013.7
20260505192106 68 20 0.0 0.0 0.00 0.00 0.00 67 1013.7
20260505191105 68 71 0.0 1.0 0.00 0.00 0.00 67 1013.7
20260505190605 67 307 1.0 6.0 0.00 0.00 0.00 66 1013.7
20260505190105 68 18 0.0 1.0 0.00 0.00 0.00 69 1013.7